GLD1736 SBBV-TGPY

Flight info

Callsign GLD1736
Flight time 1h 25m
Altitude 35000
Route ILNER UM402 POS DCT IMORO
Aircraft B738/M-SDE2E3FGHIRWXY/LB1

Departure

Time 2026-04-25 18:31
Airport Atlas Brasil Cantanhede International Airport (SBBV)

Arrival

Time 2026-04-25 19:57
Airport Maurice Bishop International Airport (TGPY)
Time Latitude Longitude Altitude Speed Heading
2026-04-25 17:51 2.84136 -60.69356 284 ft 0 kts 197°
2026-04-25 18:20 2.84143 -60.69354 284 ft 2 kts 194°
2026-04-25 18:20 2.84159 -60.69351 284 ft 2 kts 181°
2026-04-25 18:20 2.84174 -60.69352 284 ft 2 kts 163°
2026-04-25 18:20 2.84188 -60.69358 284 ft 2 kts 139°
2026-04-25 18:21 2.84198 -60.69369 284 ft 2 kts 114°
2026-04-25 18:21 2.84203 -60.69384 284 ft 2 kts 90°
2026-04-25 18:21 2.84201 -60.69398 284 ft 2 kts 66°
2026-04-25 18:21 2.84194 -60.69412 284 ft 2 kts 63°
2026-04-25 18:22 2.84189 -60.69421 284 ft 0 kts 63°
2026-04-25 18:24 2.84191 -60.69419 284 ft 3 kts 63°
2026-04-25 18:24 2.84232 -60.69361 284 ft 10 kts 70°
2026-04-25 18:24 2.84247 -60.69313 284 ft 4 kts 71°
2026-04-25 18:24 2.84261 -60.69282 284 ft 10 kts 64°
2026-04-25 18:25 2.84282 -60.69239 284 ft 3 kts 64°
2026-04-25 18:25 2.84292 -60.69221 284 ft 7 kts 50°
2026-04-25 18:25 2.84333 -60.69242 284 ft 7 kts 271°
2026-04-25 18:25 2.84305 -60.69311 284 ft 9 kts 242°
2026-04-25 18:26 2.84287 -60.69346 284 ft 4 kts 243°
2026-04-25 18:26 2.84268 -60.69383 284 ft 9 kts 243°
2026-04-25 18:26 2.84229 -60.69462 284 ft 16 kts 243°
2026-04-25 18:26 2.84182 -60.69554 284 ft 12 kts 242°
2026-04-25 18:27 2.84155 -60.69607 284 ft 7 kts 243°
2026-04-25 18:27 2.84116 -60.69682 284 ft 15 kts 244°
2026-04-25 18:27 2.84078 -60.69759 284 ft 9 kts 243°
2026-04-25 18:27 2.84062 -60.69791 284 ft 1 kts 243°
2026-04-25 18:28 2.84043 -60.69828 284 ft 15 kts 243°
2026-04-25 18:28 2.83988 -60.69936 284 ft 16 kts 243°
2026-04-25 18:28 2.83982 -60.69994 284 ft 5 kts 308°
2026-04-25 18:29 2.84079 -60.70049 284 ft 4 kts 10°
2026-04-25 18:29 2.84115 -60.70019 284 ft 3 kts 60°
2026-04-25 18:30 2.84115 -60.70018 284 ft 0 kts 60°
2026-04-25 18:30 2.84126 -60.70001 284 ft 10 kts 60°
2026-04-25 18:30 2.84247 -60.69760 284 ft 72 kts 62°
2026-04-25 18:31 2.84569 -60.69135 284 ft 131 kts 63°
2026-04-25 18:31 2.85071 -60.68163 330 ft 179 kts 63°
2026-04-25 18:31 2.85655 -60.66952 809 ft 204 kts 65°
2026-04-25 18:31 2.86263 -60.65692 1837 ft 196 kts 63°
2026-04-25 18:32 2.86903 -60.64496 2767 ft 197 kts 62°
2026-04-25 18:32 2.87704 -60.63348 3423 ft 209 kts 38°
2026-04-25 18:32 2.89104 -60.62823 3945 ft 225 kts
2026-04-25 18:32 2.90727 -60.62717 4458 ft 243 kts
2026-04-25 18:33 2.92485 -60.62798 4938 ft 263 kts 356°
2026-04-25 18:33 2.94347 -60.62980 5586 ft 274 kts 354°
2026-04-25 18:33 2.96258 -60.63216 6383 ft 279 kts 354°
2026-04-25 18:33 2.98199 -60.63473 7179 ft 283 kts 353°
2026-04-25 18:34 3.00164 -60.63746 7955 ft 287 kts 353°
2026-04-25 18:34 3.02161 -60.64034 8718 ft 292 kts 353°
2026-04-25 18:34 3.04185 -60.64334 9469 ft 295 kts 353°
2026-04-25 18:34 3.06232 -60.64643 10217 ft 299 kts 352°
2026-04-25 18:35 3.08290 -60.64961 10776 ft 310 kts 352°
2026-04-25 18:35 3.10519 -60.65310 11071 ft 330 kts 352°
2026-04-25 18:35 3.12816 -60.65675 11352 ft 347 kts 352°
2026-04-25 18:35 3.15233 -60.66062 11853 ft 356 kts 351°
2026-04-25 18:36 3.17692 -60.66460 12503 ft 360 kts 351°
2026-04-25 18:36 3.20211 -60.66869 13170 ft 363 kts 351°
2026-04-25 18:36 3.22721 -60.67279 13821 ft 367 kts 351°
2026-04-25 18:36 3.25249 -60.67693 14447 ft 370 kts 351°
2026-04-25 18:37 3.27795 -60.68111 15057 ft 373 kts 351°
2026-04-25 18:37 3.30345 -60.68531 15656 ft 376 kts 351°
2026-04-25 18:37 3.32939 -60.68959 16232 ft 379 kts 351°
2026-04-25 18:37 3.35554 -60.69390 16794 ft 382 kts 351°
2026-04-25 18:38 3.38186 -60.69825 17348 ft 385 kts 351°
2026-04-25 18:38 3.39957 -60.70118 17701 ft 387 kts 351°
2026-04-25 18:38 3.42626 -60.70560 18229 ft 390 kts 351°
2026-04-25 18:38 3.45319 -60.71005 18723 ft 394 kts 351°
2026-04-25 18:39 3.48036 -60.71455 19201 ft 397 kts 351°
2026-04-25 18:39 3.50768 -60.71907 19672 ft 400 kts 351°
2026-04-25 18:39 3.53535 -60.72366 20129 ft 403 kts 351°
2026-04-25 18:39 3.57214 -60.72975 20714 ft 407 kts 351°
2026-04-25 18:40 3.59113 -60.73290 21003 ft 409 kts 351°
2026-04-25 18:40 3.61927 -60.73756 21425 ft 412 kts 351°
2026-04-25 18:40 3.64767 -60.74227 21833 ft 415 kts 351°
2026-04-25 18:40 3.67591 -60.74695 22220 ft 417 kts 351°
2026-04-25 18:41 3.70473 -60.75173 22605 ft 420 kts 351°
2026-04-25 18:41 3.73372 -60.75653 22975 ft 423 kts 351°
2026-04-25 18:41 3.76281 -60.76136 23335 ft 425 kts 351°
2026-04-25 18:41 3.79205 -60.76621 23686 ft 428 kts 351°
2026-04-25 18:42 3.82130 -60.77106 24022 ft 430 kts 351°
2026-04-25 18:42 3.84114 -60.77435 24245 ft 432 kts 351°
2026-04-25 18:42 3.88097 -60.78077 24675 ft 435 kts 353°
2026-04-25 18:42 3.91114 -60.78422 24989 ft 437 kts 355°
2026-04-25 18:43 3.94145 -60.78683 25297 ft 439 kts 356°
2026-04-25 18:43 3.97204 -60.78928 25603 ft 441 kts 356°
2026-04-25 18:43 4.00280 -60.79184 25899 ft 444 kts 356°
2026-04-25 18:43 4.03328 -60.79444 26153 ft 447 kts 356°
2026-04-25 18:44 4.06439 -60.79715 26425 ft 449 kts 356°
2026-04-25 18:44 4.09559 -60.79990 26694 ft 451 kts 356°
2026-04-25 18:44 4.12694 -60.80269 26970 ft 453 kts 356°
2026-04-25 18:44 4.15849 -60.80551 27232 ft 456 kts 356°
2026-04-25 18:45 4.19026 -60.80837 27498 ft 458 kts 356°
2026-04-25 18:45 4.22208 -60.81124 27740 ft 460 kts 356°
2026-04-25 18:45 4.25402 -60.81413 27999 ft 462 kts 356°
2026-04-25 18:45 4.28573 -60.81701 28246 ft 464 kts 356°
2026-04-25 18:46 4.31804 -60.81994 28497 ft 465 kts 356°
2026-04-25 18:46 4.35034 -60.82287 28722 ft 468 kts 356°
2026-04-25 18:46 4.38287 -60.82583 28954 ft 470 kts 356°
2026-04-25 18:46 4.41544 -60.82878 29189 ft 471 kts 356°
2026-04-25 18:47 4.45496 -60.83238 29542 ft 471 kts 356°
2026-04-25 18:47 4.48763 -60.83535 29869 ft 471 kts 356°
2026-04-25 18:47 4.52021 -60.83831 30194 ft 470 kts 356°
2026-04-25 18:48 4.55280 -60.84128 30550 ft 469 kts 356°
2026-04-25 18:48 4.58523 -60.84423 30925 ft 467 kts 355°
2026-04-25 18:48 4.61750 -60.84716 31281 ft 466 kts 355°
2026-04-25 18:48 4.64977 -60.85010 31622 ft 465 kts 355°
2026-04-25 18:49 4.68199 -60.85303 31978 ft 463 kts 355°
2026-04-25 18:49 4.71404 -60.85599 32341 ft 462 kts 355°
2026-04-25 18:49 4.74593 -60.85899 32676 ft 461 kts 355°
2026-04-25 18:49 4.77791 -60.86199 33001 ft 460 kts 354°
2026-04-25 18:50 4.80974 -60.86499 33346 ft 459 kts 354°
2026-04-25 18:50 4.84147 -60.86797 33703 ft 457 kts 354°
2026-04-25 18:50 4.87309 -60.87095 34027 ft 456 kts 354°
2026-04-25 18:50 4.90478 -60.87393 34338 ft 455 kts 354°
2026-04-25 18:51 4.93630 -60.87690 34641 ft 455 kts 354°
2026-04-25 18:51 4.95723 -60.87887 34757 ft 457 kts 354°
2026-04-25 18:51 5.03112 -60.88584 34776 ft 459 kts 354°
2026-04-25 18:52 5.09439 -60.89179 34782 ft 455 kts 354°
2026-04-25 18:52 5.15751 -60.89774 34787 ft 456 kts 354°
2026-04-25 18:53 5.22043 -60.90367 34790 ft 456 kts 354°
2026-04-25 18:53 5.28367 -60.90963 34794 ft 456 kts 354°
2026-04-25 18:54 5.37856 -60.91858 34799 ft 456 kts 354°
2026-04-25 18:55 5.44178 -60.92440 34802 ft 457 kts 354°
2026-04-25 18:55 5.50518 -60.93011 34806 ft 457 kts 354°
2026-04-25 18:56 5.56856 -60.93582 34809 ft 457 kts 354°
2026-04-25 18:56 5.63189 -60.94154 34812 ft 458 kts 354°
2026-04-25 18:57 5.69536 -60.94726 34815 ft 458 kts 354°
2026-04-25 18:57 5.75884 -60.95299 34818 ft 458 kts 354°
2026-04-25 18:58 5.82197 -60.95869 34821 ft 458 kts 354°
2026-04-25 18:58 5.91723 -60.96728 34825 ft 458 kts 354°
2026-04-25 18:59 6.04405 -60.97874 34830 ft 460 kts 354°
2026-04-25 19:00 6.14012 -60.98742 34833 ft 461 kts 354°
2026-04-25 19:01 6.23601 -60.99609 34836 ft 461 kts 354°
2026-04-25 19:01 6.29959 -61.00184 34839 ft 461 kts 354°
2026-04-25 19:02 6.39564 -61.01052 34841 ft 461 kts 354°
2026-04-25 19:03 6.47004 -61.01725 34844 ft 461 kts 354°
2026-04-25 19:03 6.55507 -61.02495 34855 ft 461 kts 354°
2026-04-25 19:04 6.65102 -61.03364 34895 ft 462 kts 354°
2026-04-25 19:05 6.77920 -61.04552 34905 ft 462 kts 354°
2026-04-25 19:06 6.84330 -61.05158 34905 ft 462 kts 354°
2026-04-25 19:06 6.93946 -61.06068 34905 ft 462 kts 354°
2026-04-25 19:07 7.03516 -61.06973 34905 ft 462 kts 354°
2026-04-25 19:08 7.13149 -61.07884 34901 ft 463 kts 354°
2026-04-25 19:09 7.24914 -61.08998 34900 ft 463 kts 354°
2026-04-25 19:10 7.35629 -61.10013 34901 ft 463 kts 354°
2026-04-25 19:10 7.42003 -61.10617 34901 ft 463 kts 354°
2026-04-25 19:11 7.48435 -61.11227 34900 ft 463 kts 354°
2026-04-25 19:11 7.54874 -61.11838 34901 ft 464 kts 354°
2026-04-25 19:12 7.61312 -61.12448 34901 ft 464 kts 354°
2026-04-25 19:12 7.67700 -61.13055 34901 ft 464 kts 354°
2026-04-25 19:13 7.74133 -61.13665 34901 ft 464 kts 354°
2026-04-25 19:13 7.80572 -61.14277 34901 ft 464 kts 354°
2026-04-25 19:14 7.87003 -61.14888 34901 ft 464 kts 354°
2026-04-25 19:14 7.93446 -61.15500 34901 ft 464 kts 354°
2026-04-25 19:15 7.99837 -61.16107 34901 ft 464 kts 354°
2026-04-25 19:15 8.06279 -61.16720 34902 ft 466 kts 354°
2026-04-25 19:16 8.12745 -61.17335 34902 ft 466 kts 354°
2026-04-25 19:16 8.19199 -61.17948 34902 ft 466 kts 354°
2026-04-25 19:17 8.25649 -61.18562 34902 ft 466 kts 354°
2026-04-25 19:17 8.32111 -61.19177 34902 ft 466 kts 354°
2026-04-25 19:18 8.38559 -61.19792 34902 ft 465 kts 354°
2026-04-25 19:18 8.44989 -61.20404 34902 ft 465 kts 354°
2026-04-25 19:19 8.51447 -61.21000 34902 ft 465 kts 354°
2026-04-25 19:19 8.57896 -61.21590 34902 ft 465 kts 354°
2026-04-25 19:20 8.64350 -61.22180 34903 ft 465 kts 354°
2026-04-25 19:20 8.70766 -61.22767 34903 ft 465 kts 354°
2026-04-25 19:21 8.77221 -61.23359 34903 ft 465 kts 354°
2026-04-25 19:21 8.86895 -61.24244 34903 ft 465 kts 354°
2026-04-25 19:22 8.93341 -61.24835 34903 ft 465 kts 354°
2026-04-25 19:23 9.02985 -61.25719 34903 ft 465 kts 354°
2026-04-25 19:23 9.11578 -61.26507 34904 ft 466 kts 354°
2026-04-25 19:24 9.18031 -61.27099 34904 ft 466 kts 354°
2026-04-25 19:25 9.30937 -61.28285 34904 ft 465 kts 354°
2026-04-25 19:25 9.37391 -61.28878 34904 ft 465 kts 354°
2026-04-25 19:26 9.43845 -61.29471 34904 ft 465 kts 354°
2026-04-25 19:26 9.50297 -61.30064 34904 ft 465 kts 354°
2026-04-25 19:27 9.55670 -61.30558 34904 ft 466 kts 354°
2026-04-25 19:27 9.63172 -61.31248 34904 ft 463 kts 353°
2026-04-25 19:28 9.69528 -61.31833 34904 ft 455 kts 353°
2026-04-25 19:28 9.75816 -61.32413 34730 ft 452 kts 353°
2026-04-25 19:29 9.78922 -61.32699 34458 ft 444 kts 353°
2026-04-25 19:29 9.81982 -61.32981 34045 ft 441 kts 353°
2026-04-25 19:29 9.85028 -61.33262 33629 ft 438 kts 353°
2026-04-25 19:29 9.88059 -61.33542 33216 ft 436 kts 353°
2026-04-25 19:30 9.91073 -61.33829 32807 ft 433 kts 353°
2026-04-25 19:30 9.94068 -61.34120 32402 ft 431 kts 354°
2026-04-25 19:30 9.97042 -61.34409 32001 ft 428 kts 354°
2026-04-25 19:30 10.00004 -61.34697 31602 ft 426 kts 354°
2026-04-25 19:31 10.02949 -61.34983 31206 ft 424 kts 354°
2026-04-25 19:31 10.05873 -61.35267 30817 ft 421 kts 354°
2026-04-25 19:31 10.08788 -61.35551 30429 ft 419 kts 354°
2026-04-25 19:31 10.11686 -61.35833 30045 ft 417 kts 354°
2026-04-25 19:32 10.14567 -61.36113 29668 ft 415 kts 355°
2026-04-25 19:32 10.17400 -61.36388 29296 ft 413 kts 355°
2026-04-25 19:32 10.20254 -61.36665 28915 ft 411 kts 355°
2026-04-25 19:32 10.22171 -61.36852 28657 ft 410 kts 355°
2026-04-25 19:33 10.25934 -61.37218 28150 ft 407 kts 355°
2026-04-25 19:33 10.28748 -61.37492 27769 ft 405 kts 354°
2026-04-25 19:33 10.31557 -61.37766 27389 ft 404 kts 354°
2026-04-25 19:33 10.34351 -61.38038 26990 ft 403 kts 355°
2026-04-25 19:34 10.37139 -61.38309 26613 ft 401 kts 354°
2026-04-25 19:34 10.39840 -61.38574 26263 ft 388 kts 355°
2026-04-25 19:34 10.42552 -61.38838 26078 ft 397 kts 355°
2026-04-25 19:34 10.45336 -61.39116 25326 ft 405 kts 353°
2026-04-25 19:35 10.48122 -61.39574 25034 ft 405 kts 349°
2026-04-25 19:35 10.50835 -61.40186 25013 ft 397 kts 346°
2026-04-25 19:35 10.53521 -61.40874 24461 ft 402 kts 345°
2026-04-25 19:35 10.56245 -61.41596 24037 ft 406 kts 345°
2026-04-25 19:36 10.59005 -61.42319 23540 ft 414 kts 345°
2026-04-25 19:36 10.61813 -61.43049 23120 ft 416 kts 346°
2026-04-25 19:36 10.64604 -61.43772 23105 ft 414 kts 346°
2026-04-25 19:36 10.67401 -61.44497 22941 ft 415 kts 346°
2026-04-25 19:37 10.70181 -61.45214 22938 ft 411 kts 346°
2026-04-25 19:37 10.72918 -61.45913 22967 ft 409 kts 346°
2026-04-25 19:37 10.75681 -61.46624 22703 ft 411 kts 346°
2026-04-25 19:37 10.78439 -61.47331 22802 ft 407 kts 346°
2026-04-25 19:38 10.81187 -61.48032 22675 ft 405 kts 346°
2026-04-25 19:38 10.83912 -61.48723 22544 ft 402 kts 346°
2026-04-25 19:38 10.86625 -61.49416 22432 ft 398 kts 346°
2026-04-25 19:38 10.89287 -61.50093 22374 ft 390 kts 346°
2026-04-25 19:39 10.91864 -61.50752 22265 ft 372 kts 346°
2026-04-25 19:39 10.94342 -61.51385 21923 ft 362 kts 346°
2026-04-25 19:39 10.96775 -61.52006 21309 ft 359 kts 346°
2026-04-25 19:39 10.99194 -61.52625 20701 ft 357 kts 346°
2026-04-25 19:40 11.01554 -61.53228 20270 ft 352 kts 346°
2026-04-25 19:40 11.03926 -61.53832 19767 ft 350 kts 346°
2026-04-25 19:40 11.06310 -61.54440 19269 ft 347 kts 346°
2026-04-25 19:40 11.08622 -61.55031 18767 ft 346 kts 346°
2026-04-25 19:41 11.10955 -61.55627 18265 ft 344 kts 346°
2026-04-25 19:41 11.13272 -61.56220 17764 ft 342 kts 346°
2026-04-25 19:41 11.15575 -61.56807 17276 ft 340 kts 346°
2026-04-25 19:41 11.16321 -61.56998 17127 ft 339 kts 346°
2026-04-25 19:42 11.20122 -61.57972 16346 ft 334 kts 346°
2026-04-25 19:42 11.22346 -61.58540 16144 ft 323 kts 346°
2026-04-25 19:42 11.24456 -61.59080 16034 ft 310 kts 346°
2026-04-25 19:42 11.26558 -61.59617 15662 ft 307 kts 346°
2026-04-25 19:43 11.28642 -61.60150 14876 ft 318 kts 346°
2026-04-25 19:43 11.30816 -61.60707 14247 ft 323 kts 346°
2026-04-25 19:43 11.32999 -61.61266 13747 ft 323 kts 346°
2026-04-25 19:43 11.35169 -61.61821 13311 ft 320 kts 346°
2026-04-25 19:44 11.37317 -61.62372 12861 ft 318 kts 346°
2026-04-25 19:44 11.39466 -61.62922 12419 ft 316 kts 346°
2026-04-25 19:44 11.41589 -61.63466 11979 ft 314 kts 346°
2026-04-25 19:44 11.43699 -61.64007 11531 ft 312 kts 346°
2026-04-25 19:45 11.45805 -61.64547 11128 ft 310 kts 346°
2026-04-25 19:45 11.47887 -61.65080 10820 ft 308 kts 346°
2026-04-25 19:45 11.49965 -61.65614 10513 ft 306 kts 346°
2026-04-25 19:45 11.51936 -61.66423 10221 ft 306 kts 330°
2026-04-25 19:46 11.53686 -61.67624 10044 ft 301 kts 324°
2026-04-25 19:46 11.55313 -61.68898 9831 ft 298 kts 321°
2026-04-25 19:46 11.56929 -61.70220 9546 ft 297 kts 321°
2026-04-25 19:46 11.58544 -61.71538 9254 ft 296 kts 321°
2026-04-25 19:47 11.60160 -61.72848 8961 ft 297 kts 322°
2026-04-25 19:47 11.61776 -61.74154 8663 ft 295 kts 322°
2026-04-25 19:47 11.63386 -61.75452 8367 ft 293 kts 322°
2026-04-25 19:47 11.64981 -61.76733 8069 ft 291 kts 322°
2026-04-25 19:48 11.66569 -61.78003 7771 ft 289 kts 322°
2026-04-25 19:48 11.68143 -61.79262 7474 ft 287 kts 322°
2026-04-25 19:48 11.69715 -61.80518 7176 ft 286 kts 322°
2026-04-25 19:48 11.71279 -61.81768 6878 ft 285 kts 322°
2026-04-25 19:49 11.72835 -61.83011 6578 ft 284 kts 322°
2026-04-25 19:49 11.73356 -61.83428 6477 ft 284 kts 322°
2026-04-25 19:49 11.75936 -61.85490 5974 ft 282 kts 322°
2026-04-25 19:49 11.77481 -61.86724 5670 ft 280 kts 322°
2026-04-25 19:50 11.80522 -61.89155 5069 ft 279 kts 323°
2026-04-25 19:50 11.82045 -61.90373 4834 ft 277 kts 323°
2026-04-25 19:50 11.83563 -61.91587 4551 ft 277 kts 323°
2026-04-25 19:51 11.85086 -61.92804 4259 ft 276 kts 323°
2026-04-25 19:51 11.86593 -61.94008 3966 ft 274 kts 323°
2026-04-25 19:51 11.88097 -61.95209 3750 ft 272 kts 323°
2026-04-25 19:51 11.89568 -61.96360 3586 ft 260 kts 328°
2026-04-25 19:52 11.91144 -61.97094 3425 ft 245 kts 349°
2026-04-25 19:52 11.92771 -61.97247 3325 ft 227 kts
2026-04-25 19:52 11.94308 -61.97203 3192 ft 217 kts
2026-04-25 19:52 11.95801 -61.97143 3070 ft 212 kts
2026-04-25 19:53 11.97263 -61.97112 2955 ft 209 kts
2026-04-25 19:53 11.98713 -61.97026 2824 ft 206 kts 19°
2026-04-25 19:53 11.99880 -61.96298 2729 ft 192 kts 50°
2026-04-25 19:53 12.00495 -61.95137 2571 ft 184 kts 78°
2026-04-25 19:54 12.00622 -61.93856 2466 ft 180 kts 90°
2026-04-25 19:54 12.00603 -61.92586 2366 ft 175 kts 93°
2026-04-25 19:54 12.00560 -61.91357 2189 ft 171 kts 94°
2026-04-25 19:54 12.00546 -61.90965 2120 ft 170 kts 94°
2026-04-25 19:55 12.00473 -61.89001 1845 ft 162 kts 94°
2026-04-25 19:55 12.00452 -61.87841 1670 ft 164 kts 93°
2026-04-25 19:55 12.00443 -61.86671 1450 ft 166 kts 92°
2026-04-25 19:55 12.00438 -61.85480 1221 ft 168 kts 92°
2026-04-25 19:56 12.00433 -61.84298 995 ft 168 kts 93°
2026-04-25 19:56 12.00428 -61.83086 761 ft 168 kts 93°
2026-04-25 19:56 12.00430 -61.81891 539 ft 167 kts 92°
2026-04-25 19:56 12.00425 -61.80722 250 ft 163 kts 93°
2026-04-25 19:57 12.00416 -61.79582 63 ft 159 kts 93°
2026-04-25 19:57 12.00400 -61.78603 49 ft 98 kts 91°
2026-04-25 19:57 12.00399 -61.78215 49 ft 38 kts 89°
2026-04-25 19:57 12.00402 -61.77975 49 ft 30 kts 91°
2026-04-25 19:58 12.00398 -61.77786 49 ft 23 kts 89°
2026-04-25 19:58 12.00401 -61.77642 49 ft 17 kts 89°
2026-04-25 19:58 12.00401 -61.77541 49 ft 11 kts 90°
2026-04-25 19:58 12.00403 -61.77472 49 ft 13 kts 83°
2026-04-25 19:59 12.00436 -61.77396 49 ft 9 kts 107°
2026-04-25 19:59 12.00402 -61.77417 49 ft 12 kts 269°
2026-04-25 19:59 12.00404 -61.77560 49 ft 24 kts 270°
2026-04-25 19:59 12.00403 -61.77714 49 ft 18 kts 270°
2026-04-25 20:00 12.00403 -61.77833 49 ft 19 kts 270°
2026-04-25 20:00 12.00403 -61.77879 49 ft 19 kts 270°
2026-04-25 20:00 12.00404 -61.78144 49 ft 27 kts 269°
2026-04-25 20:00 12.00409 -61.78328 49 ft 29 kts 271°
2026-04-25 20:01 12.00433 -61.78584 49 ft 6 kts 325°
2026-04-25 20:01 12.00450 -61.78592 49 ft 6 kts 342°
2026-04-25 20:01 12.00460 -61.78595 49 ft 0 kts 350°
2026-04-25 20:02 12.00466 -61.78595 49 ft 4 kts 353°
2026-04-25 20:02 12.00498 -61.78597 49 ft 0 kts 360°
2026-04-25 20:02 12.00510 -61.78597 49 ft 6 kts 360°
2026-04-25 20:02 12.00564 -61.78588 49 ft 9 kts 31°
2026-04-25 20:03 12.00576 -61.78569 49 ft 1 kts 72°
2026-04-25 20:03 12.00584 -61.78530 49 ft 4 kts 63°
2026-04-25 20:03 12.00598 -61.78527 49 ft 4 kts 351°
2026-04-25 20:03 12.00629 -61.78532 49 ft 0 kts 355°
2026-04-25 20:04 12.00649 -61.78533 49 ft 0 kts
2026-04-25 20:04 12.00653 -61.78533 49 ft 0 kts